[[{"header":{"parameterUnit":"m.s-1","parameterCategory":1,"la1":30.2991,"la2":30.254,"lo1":-89.0895,"lo2":-89.0444,"dy":0.0017,"dx":0.0017,"nx":28,"ny":28,"refTime":"2025-02-03T03:00:00:Z","depth":0,"parameterNumber":2,"parameterNumberName":"U-component_of_WINDS"},"data":[0,0,0,0,0,0,0,0,0,0,0,0,0,0,0,0,0,0,0,0,0,0,0,0,0,0,0,0,0,0,0,0,0,0,0,0,0,0,0,0,0,0,0,0,0,0,0,0,0,0,0,0,0,0,0,0,0,0,-2.345,-2.345,0,-2.3492,-2.3492,-2.3493,-2.3442,-2.344,-2.3438,-2.3436,-2.3478,-2.3481,-2.3483,0,0,0,0,0,0,0,0,0,0,0,0,0,-2.3324,-2.3327,-2.345,-2.345,-2.3451,-2.3492,-2.3492,-2.3493,-2.3442,-2.344,-2.3438,-2.3435,-2.3477,-2.348,-2.3484,0,0,0,0,0,0,0,0,0,0,0,0,0,-2.3374,-2.3328,-2.3449,-2.343,-2.3429,-2.3492,-2.3492,-2.3493,-2.3443,-2.344,-2.3437,-2.3434,-2.3476,-2.348,-2.3484,-2.3567,0,0,-2.3497,-2.3499,0,0,0,0,0,0,0,0,-2.3371,-2.3378,-2.3433,-2.3432,-2.343,-2.3459,-2.3463,-2.3518,-2.3443,-2.3437,-2.3436,-2.3433,-2.3474,-2.3478,-2.3492,-2.3569,-2.3571,-2.3498,-2.35,-2.3502,-2.3503,0,0,0,0,0,0,0,-2.3368,-2.3376,-2.3466,-2.3433,-2.3432,-2.3419,-2.3423,-2.3473,-2.3471,-2.3438,-2.3434,-2.344,-2.3472,-2.3488,-2.3493,-2.3572,-2.3498,-2.3501,-2.3504,-2.3506,-2.372,-2.3723,0,0,0,0,0,0,-2.3367,-2.3374,-2.3465,-2.3467,-2.3393,-2.3424,-2.3428,-2.3452,-2.347,-2.347,-2.3442,-2.3437,-2.3482,-2.3488,-2.3494,-2.3592,-2.3502,-2.3506,-2.3509,-2.3717,-2.372,-2.3724,0,0,0,0,0,0,-2.3364,-2.3375,-2.3463,-2.342,-2.343,-2.3429,-2.3457,-2.3455,-2.347,-2.3474,-2.3473,-2.3459,-2.348,-2.3488,-2.355,-2.3593,-2.3508,-2.3512,-2.3713,-2.3718,-2.3722,-2.379,0,0,0,0,0,0,-2.3361,-2.3375,-2.3406,-2.3421,-2.3433,-2.3519,-2.3459,-2.3458,-2.3478,-2.3472,-2.3489,-2.3489,-2.3478,-2.3544,-2.3554,-2.3597,-2.3515,-2.3709,-2.3715,-2.3721,-2.3783,-2.3796,-2.3807,0,0,0,0,0,-2.3356,-2.3423,-2.3408,-2.3419,-2.3472,-2.3521,-2.3528,-2.3515,-2.3482,-2.3513,-2.3516,-2.3488,-2.3587,-2.355,-2.3562,-2.3607,-2.3706,-2.3713,-2.372,-2.3778,-2.3794,-2.3806,0,0,0,0,0,0,-2.3412,-2.3424,-2.3408,-2.3481,-2.3501,-2.3512,-2.3552,-2.3532,-2.356,-2.3553,-2.3536,-2.354,-2.3606,-2.3613,-2.3572,-2.3689,-2.3641,-2.3651,-2.3681,-2.3696,-2.3707,-2.3704,-2.3519,0,0,0,0,0,-2.3433,-2.3473,-2.3481,-2.3545,-2.3556,-2.3553,-2.3573,-2.3562,-2.3581,-2.3589,-2.3596,-2.3615,-2.365,-2.3674,-2.3706,-2.3785,-2.3788,-2.3822,-2.3833,-2.3843,-2.3851,-2.3893,-2.3908,-2.3747,-2.3747,-2.3746,0,0,-2.3476,-2.3488,-2.3514,-2.3557,-2.357,-2.3611,-2.3559,-2.3605,-2.3635,-2.3595,-2.3654,-2.366,-2.3681,-2.3751,-2.3783,-2.3759,-2.3897,-2.3852,-2.3859,-2.3862,-2.3902,-2.3917,-2.3931,-2.3751,-2.3751,-2.375,0,0,-2.3576,-2.3589,-2.3644,-2.3659,-2.3681,-2.3679,-2.3692,-2.3708,-2.3711,-2.377,-2.3741,-2.3777,-2.3838,-2.3854,-2.387,-2.3978,-2.3954,-2.399,-2.4049,-2.4091,-2.4104,-2.4115,-2.4153,-2.4167,-2.3998,-2.3998,-2.3998,0,-2.3627,-2.3688,-2.3675,-2.3722,-2.3742,-2.371,-2.3765,-2.3781,-2.3812,-2.3826,-2.3799,-2.3876,-2.3888,-2.3962,-2.3988,-2.4003,-2.4017,-2.3986,-2.4103,-2.4114,-2.4124,-2.416,-2.4175,-2.4002,-2.4002,-2.4001,-2.4001,0,-2.3749,-2.3792,-2.3833,-2.3865,-2.389,-2.3941,-2.3936,-2.3962,-2.395,-2.395,-2.4011,-2.4025,-2.4059,-2.4077,-2.4064,-2.4149,-2.4134,-2.4106,-2.4057,-2.4144,-2.4177,-2.4191,-2.4008,-2.4006,-2.4005,-2.4004,0,0,-2.3882,-2.3908,-2.3923,-2.3938,-2.3961,-2.3993,-2.4044,-2.4079,-2.4102,-2.4125,-2.4167,-2.422,-2.4195,-2.4213,-2.4203,-2.4239,-2.4324,-2.4207,-2.4207,-2.4227,-2.4418,-2.4438,-2.4454,-2.4309,-2.4312,-2.4314,-2.4416,0,-2.3981,-2.4069,-2.4059,-2.4142,-2.4182,-2.4153,-2.4197,-2.4216,-2.4219,-2.4252,-2.4255,-2.4293,-2.4257,-2.4268,-2.4303,-2.4306,-2.4362,-2.4299,-2.4346,-2.4348,-2.434,-2.4472,-2.4493,-2.4589,-2.4429,-2.4431,-2.4433,0,-2.4108,-2.4137,-2.4224,-2.4242,-2.4258,-2.4298,-2.433,-2.4363,-2.4384,-2.4383,-2.4405,-2.4389,-2.4439,-2.4392,-2.4461,-2.4418,-2.4438,-2.4443,-2.4446,-2.4448,-2.4395,-2.4477,-2.4619,-2.4633,-2.4454,-2.4452,-2.4451,0,-2.4195,-2.4257,-2.4317,-2.433,-2.4353,-2.4381,-2.4392,-2.4411,-2.4433,-2.4461,-2.4475,-2.4509,-2.4527,-2.4553,-2.4547,-2.4513,-2.4617,-2.4569,-2.4617,-2.4618,-2.4639,-2.4637,-2.4785,-2.4654,-2.4654,-2.4654,-2.4653,0,-2.4306,-2.436,-2.4356,-2.4393,-2.4453,-2.4443,-2.4503,-2.451,-2.4527,-2.4565,-2.4543,-2.4578,-2.4568,-2.4603,-2.4598,-2.4656,-2.4665,-2.4665,-2.4663,-2.4666,-2.4666,-2.4677,-2.467,-2.4658,-2.4657,-2.4656,-2.4655,0,-2.4413,-2.4413,-2.4476,-2.4493,-2.4499,-2.4543,-2.4557,-2.4592,-2.4594,-2.4642,-2.4652,-2.4655,-2.4695,-2.4692,-2.4737,-2.4734,-2.4806,-2.4796,-2.4799,-2.4796,-2.4844,-2.4839,-2.5003,-2.5023,-2.4881,-2.4882,-2.4883,0,-2.4483,-2.4524,-2.4546,-2.457,-2.4583,-2.4622,-2.4645,-2.4637,-2.4662,-2.469,-2.4722,-2.4761,-2.4791,-2.4857,-2.4863,-2.4898,-2.4888,-2.4943,-2.4893,-2.4895,-2.4888,-2.4885,-2.4888,-2.4952,-2.4954,-2.4955,-2.4956,0,-2.4606,-2.4605,-2.4639,-2.4674,-2.4702,-2.4729,-2.4753,-2.4774,-2.4769,-2.4798,-2.484,-2.4864,-2.4911,-2.495,-2.4983,-2.4994,-2.4974,-2.4973,-2.4985,-2.4988,-2.4987,-2.4988,-2.4824,-2.4968,-2.4967,-2.4966,-2.4966,-2.4965,-2.4696,-2.4731,-2.4753,-2.4792,-2.481,-2.4834,-2.4867,-2.4874,-2.4909,-2.4948,-2.4941,-2.4988,-2.5009,-2.5052,-2.5067,-2.5103,-2.5083,-2.5102,-2.5106,-2.5111,-2.5116,-2.4984,-2.5109,-2.5109,-2.5109,-2.5108,-2.5108,0,-2.4817,-2.483,-2.4867,-2.4902,-2.4933,-2.4914,-2.4941,-2.4968,-2.5009,-2.5031,-2.5062,-2.5111,-2.5149,-2.5159,-2.5195,-2.5222,-2.5214,-2.5232,-2.5229,-2.5232,-2.5132,-2.5117,-2.5238,-2.5238,-2.5238,-2.5238,-2.5238,-2.5238,-2.4884,-2.4943,-2.4944,-2.5012,-2.5025,-2.5071,-2.5088,-2.511,-2.5128,-2.5183,-2.5215,-2.5222,-2.5239,-2.5277,-2.5311,-2.5313,-2.5326,-2.5348,-2.5346,-2.5252,-2.5239,-2.5226,-2.5212,-2.5351,-2.5351,-2.5442,-2.5443,-2.5444]},{"header":{"parameterUnit":"m.s-1","parameterCategory":1,"la1":30.2991,"la2":30.254,"lo1":-89.0895,"lo2":-89.0444,"dy":0.0017,"dx":0.0017,"nx":28,"ny":28,"refTime":"2025-02-03T03:00:00:Z","depth":0,"parameterNumber":3,"parameterNumberName":"V-component_of_WINDS"},"data":[0,0,0,0,0,0,0,0,0,0,0,0,0,0,0,0,0,0,0,0,0,0,0,0,0,0,0,0,0,0,0,0,0,0,0,0,0,0,0,0,0,0,0,0,0,0,0,0,0,0,0,0,0,0,0,0,0,0,0.8892,0.8892,0,0.8866,0.8866,0.8865,0.8893,0.8894,0.8895,0.8896,0.8866,0.8864,0.8862,0,0,0,0,0,0,0,0,0,0,0,0,0,0.8964,0.8963,0.8892,0.8892,0.8891,0.8866,0.8866,0.8865,0.8893,0.8894,0.8895,0.8896,0.8866,0.8864,0.8862,0,0,0,0,0,0,0,0,0,0,0,0,0,0.8935,0.8962,0.8892,0.8902,0.8903,0.8866,0.8866,0.8865,0.8892,0.8894,0.8896,0.8897,0.8867,0.8864,0.8862,0.8813,0,0,0.8854,0.8852,0,0,0,0,0,0,0,0,0.8936,0.8932,0.8901,0.8901,0.8902,0.8884,0.888,0.8847,0.8892,0.8896,0.8896,0.8898,0.887,0.8868,0.8859,0.8811,0.881,0.8853,0.8852,0.885,0.885,0,0,0,0,0,0,0,0.8938,0.8933,0.8882,0.89,0.8901,0.8907,0.8905,0.8874,0.8874,0.8896,0.8898,0.8895,0.8871,0.8862,0.8859,0.881,0.8853,0.8851,0.8849,0.8848,0.8723,0.8721,0,0,0,0,0,0,0.894,0.8935,0.8882,0.8881,0.8924,0.8905,0.8902,0.8888,0.8875,0.8875,0.8893,0.8896,0.8865,0.8862,0.8858,0.8801,0.8851,0.8848,0.8846,0.8725,0.8723,0.8721,0,0,0,0,0,0,0.8941,0.8935,0.8883,0.8908,0.8902,0.8902,0.8886,0.8887,0.8878,0.8873,0.8873,0.8884,0.8867,0.8861,0.8825,0.88,0.8847,0.8844,0.8727,0.8724,0.8722,0.8686,0,0,0,0,0,0,0.8943,0.8935,0.8917,0.8908,0.8901,0.8851,0.8885,0.8885,0.8873,0.8877,0.8864,0.8863,0.8867,0.8828,0.8822,0.8797,0.8842,0.8729,0.8726,0.8723,0.8689,0.8683,0.8677,0,0,0,0,0,0.8945,0.8906,0.8915,0.8909,0.8878,0.885,0.8846,0.8852,0.8871,0.8853,0.885,0.8864,0.8804,0.8824,0.8817,0.8791,0.8731,0.8727,0.8723,0.8692,0.8684,0.8677,0,0,0,0,0,0,0.891,0.8905,0.8915,0.8872,0.8861,0.8854,0.8831,0.8843,0.8825,0.8829,0.8837,0.8834,0.8795,0.879,0.8812,0.8745,0.877,0.8765,0.8749,0.8742,0.8735,0.8737,0.884,0,0,0,0,0,0.8898,0.8876,0.8872,0.8835,0.8829,0.8831,0.8819,0.8825,0.8814,0.8809,0.8803,0.8791,0.877,0.8755,0.8735,0.8689,0.8687,0.8668,0.8662,0.8656,0.8651,0.8628,0.862,0.8708,0.8708,0.8708,0,0,0.8871,0.8866,0.8851,0.8828,0.882,0.8797,0.8827,0.8801,0.8784,0.8804,0.877,0.8766,0.8753,0.8712,0.8693,0.8706,0.8627,0.8652,0.8647,0.8645,0.8623,0.8615,0.8608,0.8706,0.8706,0.8707,0,0,0.8811,0.8804,0.8773,0.8766,0.8755,0.8757,0.8749,0.8741,0.874,0.8706,0.8721,0.8701,0.8664,0.8654,0.8645,0.8584,0.8596,0.8577,0.8544,0.8521,0.8514,0.8508,0.8487,0.848,0.8573,0.8572,0.8572,0,0.8778,0.8745,0.8755,0.8729,0.8719,0.8739,0.8707,0.8699,0.8681,0.8674,0.8689,0.8644,0.8636,0.8594,0.858,0.8571,0.8563,0.8578,0.8515,0.8509,0.8503,0.8483,0.8475,0.857,0.857,0.8571,0.8571,0,0.8707,0.8684,0.866,0.8645,0.8632,0.8603,0.8608,0.8594,0.8602,0.8602,0.8568,0.8561,0.854,0.8531,0.8537,0.849,0.8498,0.8514,0.854,0.8492,0.8474,0.8466,0.8567,0.8568,0.8569,0.8569,0,0,0.8621,0.8614,0.8605,0.86,0.859,0.8572,0.8545,0.8527,0.8515,0.8502,0.848,0.8449,0.8465,0.8454,0.846,0.844,0.8394,0.8458,0.8458,0.8447,0.8342,0.833,0.8321,0.8402,0.8401,0.84,0.8343,0,0.8562,0.8516,0.8525,0.8479,0.8459,0.8479,0.8455,0.8447,0.8447,0.843,0.843,0.8408,0.8429,0.8423,0.8405,0.8403,0.8373,0.8407,0.8381,0.838,0.8384,0.8312,0.8299,0.8246,0.8336,0.8335,0.8334,0,0.8485,0.8473,0.8426,0.8422,0.8414,0.8392,0.8378,0.836,0.8352,0.8353,0.8343,0.8353,0.8326,0.8354,0.8317,0.834,0.833,0.8328,0.8326,0.8324,0.8354,0.8307,0.8229,0.8221,0.8322,0.8323,0.8324,0,0.8429,0.84,0.8369,0.8363,0.8357,0.8342,0.8339,0.8332,0.8321,0.8308,0.8301,0.8285,0.8275,0.8262,0.8268,0.8287,0.8231,0.8258,0.8231,0.8231,0.8218,0.8218,0.8137,0.8211,0.8211,0.8211,0.8212,0,0.8361,0.8332,0.8344,0.8324,0.8292,0.8304,0.8272,0.8271,0.8265,0.8246,0.8262,0.8243,0.8252,0.8235,0.8239,0.8208,0.8204,0.8204,0.8206,0.8203,0.8203,0.8196,0.82,0.8209,0.821,0.821,0.8211,0,0.8292,0.8299,0.8266,0.8265,0.8264,0.824,0.8239,0.8221,0.8224,0.8199,0.8194,0.8198,0.8178,0.8183,0.8161,0.8164,0.8126,0.8132,0.8129,0.813,0.8104,0.8106,0.8015,0.8004,0.8085,0.8084,0.8084,0,0.8248,0.8227,0.8224,0.8213,0.8209,0.8191,0.8181,0.8192,0.8181,0.8171,0.8154,0.8136,0.8122,0.809,0.809,0.8073,0.8079,0.8048,0.8077,0.8075,0.8079,0.8081,0.8079,0.8042,0.8041,0.8041,0.804,0,0.817,0.8175,0.8161,0.8148,0.8136,0.8126,0.8117,0.8107,0.8118,0.8104,0.8085,0.8075,0.8054,0.8036,0.8021,0.8017,0.803,0.8032,0.8025,0.8021,0.8021,0.8021,0.8114,0.8033,0.8034,0.8034,0.8035,0.8035,0.8113,0.8095,0.8091,0.8075,0.807,0.8062,0.8046,0.8048,0.8033,0.8018,0.8025,0.8003,0.7997,0.7979,0.7974,0.7956,0.7968,0.7958,0.7955,0.7952,0.7949,0.8024,0.7954,0.7954,0.7954,0.7954,0.7954,0,0.8036,0.8035,0.802,0.8009,0.7997,0.8012,0.8004,0.7992,0.7973,0.7967,0.7954,0.7933,0.7916,0.7916,0.7901,0.7887,0.7893,0.7883,0.7884,0.7883,0.794,0.7947,0.7879,0.7879,0.7879,0.7879,0.7879,0.7879,0.7995,0.7966,0.7971,0.7941,0.794,0.792,0.7915,0.7908,0.7903,0.7879,0.7867,0.7867,0.7864,0.7849,0.7834,0.7835,0.7828,0.7816,0.7819,0.7871,0.7879,0.7886,0.7893,0.7815,0.7814,0.7764,0.7763,0.7763]}]]